Home   Weather   Lódz   Past weeks

Flag for Poland Past Weather in Lódz, Poland — Yesterday and Last 2 Weeks

Now
66 °F

Partly sunny.


Feels Like: 66 °F
Forecast: 59 / 71 °F
Wind: 8 mph from West

Location: Lodz

Current Time: Jul 27, 2017 at 4:51:08 pm

Latest Report: Jul 27, 2017 at 4:00 pm


Visibility: 13 mi

Pressure: 29.72 "Hg

Humidity: 80%

Dew Point: 60 °F

Location of LódzLocation

Past Weather in Lódz — Graph

°F

Lódz Temperature Yesterday

Maximum temperature yesterday: 70 °F (at 5:00 pm)
Minimum temperature yesterday: 57 °F (at 12:00 am)
Average temperature yesterday: 62 °F

High & Low Weather Summary for the Past Weeks

 TemperatureHumidityPressure
High81 °F (Jul 23, 3:00 pm)100% (Jul 21, 6:00 am)30.20 "Hg (Jul 21, 6:00 am)
Low46 °F (Jul 14, 5:00 am)39% (Jul 15, 6:00 pm)29.50 "Hg (Jul 25, 7:00 am)
Average64 °F78%29.89 "Hg
* Reported Jul 12 3:00 pm — Jul 27 3:00 pm, Lódz. Weather by CustomWeather, © 2017

Note: Actual official high and low records may vary slightly from our data, if they occured in-between our weather recording intervals... More about our weather records

Advertising

Lódz Weather History for the Previous 24 Hours

Scroll right to see more
 ConditionsComfort  
Time TempWeatherWind HumidityBarometerVisibility
3:00 pm
Thu, Jul 27
69 °FOvercast.6 mph65%29.71 "Hg12 mi
2:00 pm68 °FOvercast.5 mph66%29.71 "Hg12 mi
1:00 pm67 °FOvercast.5 mph70%29.71 "Hg12 mi
12:00 pm66 °FPartly sunny.5 mph74%29.70 "Hg12 mi
11:00 am65 °FOvercast.5 mph77%29.70 "Hg12 mi
10:00 am64 °FPartly sunny.3 mph80%29.70 "Hg12 mi
9:00 am64 °FPartly sunny.5 mph83%29.69 "Hg12 mi
8:00 am63 °FPassing clouds.3 mph83%29.67 "Hg12 mi
7:00 am59 °FPassing clouds.2 mph86%29.66 "Hg12 mi
6:00 am55 °FPassing clouds.1 mph91%29.66 "Hg12 mi
5:00 am54 °FPassing clouds.1 mph92%29.66 "Hg12 mi
4:00 am55 °FPassing clouds.1 mph91%29.65 "Hg12 mi
3:00 am56 °FClear.1 mph88%29.65 "Hg12 mi
2:00 am57 °FClear.1 mph85%29.65 "Hg12 mi
1:00 am58 °FPassing clouds.1 mph84%29.65 "Hg12 mi
12:00 am60 °FPassing clouds.2 mph80%29.63 "Hg12 mi
11:00 pm
Wed, Jul 26
62 °FOvercast.1 mph78%29.62 "Hg12 mi
10:00 pm63 °FPassing clouds.2 mph78%29.62 "Hg12 mi
9:00 pm64 °FPassing clouds.1 mph76%29.61 "Hg12 mi
8:00 pm66 °FPartly sunny.2 mph67%29.60 "Hg12 mi
7:00 pm67 °FOvercast.2 mph63%29.59 "Hg12 mi
6:00 pm69 °FPartly sunny.3 mph55%29.58 "Hg12 mi
5:00 pm70 °FOvercast.3 mph57%29.57 "Hg12 mi
4:00 pm69 °FOvercast.3 mph58%29.57 "Hg12 mi
Weather by CustomWeather, © 2017

See weather overviewHow to use our weather pages